{"data":{"norad_id":58976,"epoch":"2026-09-19T22:51:59.687424Z","epoch_age_seconds":202790,"freshness":"STALE","line1":"1 58976U 24031M   26262.95277416  .00002781  00000+0  93379-4 0  9996","line2":"2 58976  53.1580 112.3829 0001266  77.0034 283.1110 15.34415086146285","mean_motion":15.34415086,"eccentricity":0.0001266,"inclination_deg":53.158,"raan_deg":112.3829,"arg_perigee_deg":77.0034,"mean_anomaly_deg":283.111,"bstar":9.3379e-5,"rev_number":14628,"period_min":93.846835392754,"perigee_km":461.79235710538,"apogee_km":463.52444650111,"semimajor_km":6840.7954018032,"source":"CELESTRAK","updated_at":"2026-09-21T09:00:34.020916Z"}}